Theta_e
349 349 350 350 352 353 353 353 353 351 350 350 352 353 354 355 354 353 353 353 354 353 351 351 351 352 350 349 350 349 348 349 350 351 352 352 352 352 351 351 351 351 352 354 353 354 355 356 355 355 355 355 354 354 353 353 354 355 354 353 352 353 354 353 354 355 353 352 352 351 351 353 352 352 354 354 354 354 354 354 354 354 355 356 356
349 349 349 349 350 351 351 352 352 352 352 352 353 352 353 354 354 354 353 352 352 352 351 350 350 350 351 350 350 348 348 348 348 349 351 351 352 352 352 352 352 352 353 354 354 354 355 356 356 356 356 355 354 354 353 354 355 355 354 353 351 352 353 353 353 352 352 352 351 350 350 353 353 352 352 353 354 354 354 354 354 354 354 355 356
348 348 348 348 349 350 351 352 352 352 352 352 353 353 353 353 353 354 353 351 350 350 350 349 349 350 352 351 350 348 347 348 349 348 349 351 352 352 352 352 352 353 354 355 354 355 355 356 356 356 356 356 355 354 353 354 355 355 354 352 352 352 352 352 352 352 351 351 352 351 350 352 354 354 353 353 354 353 353 353 353 352 352 353 354
348 347 348 348 348 350 351 351 352 352 352 352 353 354 353 353 353 354 353 352 350 347 347 347 349 352 354 354 352 351 349 349 349 348 347 350 352 352 352 353 354 354 355 356 356 356 356 356 356 354 355 355 354 353 353 354 356 356 355 353 352 352 352 351 352 353 352 352 351 351 351 351 353 353 354 354 353 352 352 351 351 351 351 352 352
346 347 347 347 347 348 350 351 352 352 353 353 352 353 353 353 353 354 354 353 351 348 345 345 348 352 354 354 355 354 351 349 348 348 348 347 349 353 352 353 354 355 355 357 356 356 356 356 356 355 355 355 355 354 354 355 357 356 355 354 352 352 352 352 352 352 352 352 351 351 351 352 353 353 354 353 353 352 351 351 351 350 351 352 352
345 346 346 347 347 347 348 350 351 351 352 352 352 352 352 352 352 353 353 352 353 352 350 347 348 351 353 355 356 354 352 349 348 348 348 347 346 351 354 353 354 355 355 356 356 356 357 356 356 357 356 356 356 355 354 355 357 356 355 353 352 351 351 352 353 353 352 352 351 351 352 353 353 354 354 354 353 353 352 351 352 351 352 354 354
343 345 346 347 347 347 347 348 350 349 349 349 350 350 351 350 350 351 351 351 352 354 354 353 353 354 355 356 356 354 352 350 350 349 349 347 347 349 352 354 354 354 355 356 356 357 357 356 357 357 357 357 356 354 354 356 357 356 356 354 352 351 352 353 354 353 352 352 351 351 352 353 354 354 354 355 355 355 355 354 353 352 353 355 356
342 344 345 346 347 347 347 347 348 348 347 347 347 348 349 349 349 350 350 350 351 353 354 355 355 356 356 356 355 355 352 351 352 350 349 348 348 349 351 353 354 354 355 355 356 356 357 357 357 357 357 357 356 354 354 355 357 357 357 356 352 350 352 354 355 354 353 353 353 353 353 353 355 354 354 356 356 356 356 354 354 353 353 354 355
341 343 345 346 347 348 347 347 348 347 348 347 346 347 347 348 349 350 350 350 351 353 354 355 355 355 355 355 355 355 354 353 353 352 350 349 349 351 352 354 354 354 355 356 356 357 357 357 357 357 357 357 356 355 354 353 354 355 356 355 353 352 352 354 355 355 354 355 354 354 355 355 355 355 354 355 355 355 355 355 354 353 352 354 354
340 342 344 346 347 347 347 348 349 348 348 348 347 347 347 347 347 348 349 349 351 352 352 354 354 354 354 354 354 354 354 355 355 354 351 350 350 352 354 356 355 355 355 356 356 357 357 357 358 357 357 357 356 355 353 353 353 354 355 355 355 354 352 353 356 356 355 355 354 354 354 354 354 354 353 353 354 354 355 355 354 354 353 354 354
339 342 344 345 346 346 347 348 348 349 350 350 350 349 347 347 347 347 348 349 349 350 351 352 352 353 354 353 354 354 355 356 356 355 353 351 351 352 353 355 356 357 356 356 357 357 357 357 357 357 357 356 355 354 354 355 356 356 357 357 356 356 353 352 354 356 356 355 355 354 354 354 354 354 354 353 353 353 355 355 355 355 354 353 352
338 340 343 344 345 345 345 346 347 348 349 349 350 350 349 349 348 347 347 348 349 349 349 350 350 351 352 353 353 354 355 355 356 355 354 354 355 355 354 353 355 357 358 357 357 357 357 356 356 355 355 354 354 353 355 357 357 356 357 357 357 356 355 352 352 354 355 355 355 355 354 354 354 353 353 353 353 354 355 355 355 354 354 352 352
339 340 342 342 344 344 344 345 346 347 347 347 347 349 350 350 350 349 349 349 350 350 349 350 350 350 350 352 353 354 354 355 355 356 356 355 355 357 356 354 355 355 356 356 356 355 356 355 355 354 355 354 354 354 354 355 356 356 357 357 357 356 355 353 352 352 354 354 354 354 354 353 353 352 352 353 353 353 355 354 355 354 353 352 352
340 339 339 341 343 344 343 344 345 347 348 347 346 347 348 350 350 349 348 348 349 350 350 349 349 350 350 351 352 354 353 354 354 354 355 355 354 354 355 354 354 354 354 354 354 354 354 354 354 355 355 355 354 354 354 353 354 355 355 355 356 355 355 355 353 353 354 352 352 354 353 352 352 352 351 352 352 352 353 353 354 354 353 352 352
338 338 338 341 344 345 344 344 345 346 348 348 347 347 347 348 349 349 348 347 348 349 349 349 349 349 351 351 352 353 353 353 353 354 354 353 353 352 353 353 353 352 353 353 354 354 353 353 354 355 355 355 355 354 353 353 353 354 353 353 354 354 355 355 354 355 355 353 351 354 354 353 352 352 351 351 351 352 353 353 354 353 352 352 352
336 336 339 341 343 344 344 345 346 346 346 346 347 346 346 346 347 349 350 350 349 348 347 348 348 348 349 350 350 351 352 352 352 352 353 352 351 351 352 351 351 351 352 352 353 353 352 352 353 355 354 354 354 353 353 353 353 353 352 352 353 355 355 355 355 356 355 353 352 354 355 353 353 352 352 352 353 353 353 354 354 354 353 352 352
336 337 340 340 340 342 344 345 346 345 344 345 346 346 346 345 344 345 348 350 350 348 346 346 346 347 347 348 349 349 349 350 350 350 351 350 350 350 350 350 350 350 351 351 352 352 352 352 354 354 354 354 354 354 354 355 354 353 352 352 354 355 355 354 355 355 354 352 353 354 353 353 353 353 352 353 353 352 352 352 351 352 352 351 350
336 338 339 338 338 341 344 345 346 344 343 344 344 345 346 345 343 343 346 348 348 346 346 346 346 346 346 347 347 348 348 348 348 348 348 348 348 348 348 349 350 350 350 350 351 351 352 352 353 353 353 354 354 354 354 354 353 353 353 352 353 354 354 353 352 353 354 353 354 354 353 354 354 354 354 352 349 347 346 346 345 346 348 349 348
337 337 337 336 337 341 344 344 345 344 343 343 344 345 345 345 344 344 345 347 347 345 346 346 346 346 346 346 347 346 346 347 347 347 348 348 348 347 348 349 350 350 350 349 350 351 352 352 353 353 353 354 354 354 353 352 352 353 353 352 352 354 354 351 349 352 354 354 354 353 353 354 354 354 350 346 344 343 342 342 341 341 344 345 346
337 338 338 337 338 339 342 342 343 343 343 344 344 344 344 344 344 345 346 347 346 347 347 347 347 346 346 347 347 348 348 348 349 349 349 348 348 347 348 349 349 349 349 349 349 351 352 352 354 353 353 353 353 354 353 353 352 353 353 352 352 353 353 350 349 351 352 353 353 353 352 353 353 350 345 343 343 343 342 341 341 341 341 340 342
337 337 337 338 337 338 340 340 342 342 343 343 344 343 344 343 344 345 346 346 346 346 347 347 347 347 347 347 348 350 350 350 350 350 348 348 349 348 348 349 349 349 349 348 349 351 351 352 353 353 353 353 353 353 352 353 354 354 353 353 353 352 350 349 349 351 351 352 352 352 352 352 350 347 344 344 344 343 343 342 342 343 342 341 342
336 336 337 338 338 338 340 341 342 342 343 344 343 343 343 343 343 344 345 345 345 345 345 346 346 346 346 347 349 350 351 350 350 349 348 348 348 349 348 349 349 348 348 348 348 349 350 350 351 352 353 353 353 352 352 354 354 353 351 351 350 349 348 348 349 351 352 352 352 352 353 352 349 346 345 344 343 342 341 341 343 345 345 344 344
335 336 337 337 337 338 340 341 342 342 343 343 342 341 342 343 342 343 344 345 346 345 344 344 344 344 344 346 348 349 350 350 349 349 348 348 348 348 348 347 347 347 348 348 348 348 349 349 350 351 352 353 352 352 352 353 353 351 350 350 348 346 347 348 350 352 352 352 351 350 351 350 348 347 345 344 342 341 341 341 343 345 346 345 345
335 336 336 336 336 337 339 341 341 342 343 343 341 340 341 342 342 343 344 346 346 345 345 344 343 342 343 344 347 348 349 349 348 347 346 347 348 348 348 347 347 347 347 348 348 348 349 349 349 350 351 352 352 352 351 351 350 349 349 348 346 344 344 346 349 351 352 351 350 349 348 347 346 346 346 345 343 342 343 344 345 347 346 345 345
336 336 336 335 336 336 337 339 341 342 343 343 341 339 340 340 341 342 343 345 345 345 345 343 342 341 342 343 345 346 346 347 346 346 345 346 347 348 347 347 348 348 347 347 347 347 349 348 348 349 350 351 350 350 349 348 347 346 345 343 341 340 341 343 346 348 349 349 349 347 346 345 344 344 344 344 344 345 346 346 346 346 344 343 343
336 336 335 335 335 335 336 339 341 342 342 341 340 339 339 340 340 340 341 344 345 345 344 343 341 341 342 343 344 343 342 344 345 345 344 343 343 344 345 346 347 346 346 346 346 346 347 347 347 349 350 348 347 346 345 344 342 341 339 338 338 338 339 342 344 344 344 345 345 344 343 342 343 344 345 345 345 345 346 345 343 342 341 341 341
336 335 335 335 335 336 337 339 340 341 341 341 340 340 340 340 340 340 340 341 343 344 344 343 341 341 342 343 343 342 340 342 344 344 343 343 342 341 342 342 344 344 344 344 345 346 346 346 346 347 346 344 343 341 340 339 338 337 337 337 338 339 339 340 341 340 340 341 342 343 342 343 344 345 345 346 345 345 343 341 340 339 339 339 339
336 334 334 335 336 336 338 339 339 340 342 341 340 341 342 342 341 341 340 340 341 342 343 342 342 342 342 341 342 342 341 341 343 344 344 344 342 341 340 340 341 341 341 343 344 346 345 343 343 342 341 340 339 338 337 337 337 337 337 337 338 339 337 336 337 338 339 341 342 342 343 344 345 344 345 344 343 342 341 339 339 339 339 339 339
335 334 334 334 336 337 338 339 339 340 341 341 341 341 342 343 342 342 341 341 341 342 342 342 342 342 342 341 342 342 341 341 343 344 343 343 343 343 341 338 338 339 340 341 343 342 341 339 339 338 338 337 337 337 336 337 337 337 337 337 336 336 335 335 337 340 341 342 342 343 344 345 344 343 343 343 341 340 340 340 340 340 340 340 340
335 334 334 334 335 337 338 339 338 339 339 340 341 342 342 343 342 341 341 341 341 342 343 343 342 342 342 342 342 342 342 342 343 343 343 343 342 343 341 337 336 337 338 340 340 339 338 337 337 337 336 336 336 336 336 336 336 338 338 337 335 334 334 336 340 341 341 341 342 342 344 345 343 341 341 340 340 340 341 341 341 341 340 339 339
335 335 334 334 335 336 337 338 338 338 338 340 341 341 342 342 341 341 340 340 340 341 342 343 343 343 343 343 343 344 343 343 344 344 344 342 341 341 339 336 336 336 337 338 338 338 337 337 336 336 336 335 335 335 335 335 336 337 339 337 336 335 337 339 341 340 339 339 340 342 343 343 341 340 339 339 340 340 341 341 341 341 340 339 339
335 335 335 335 336 336 336 337 337 338 338 339 339 340 341 342 341 340 339 339 340 341 342 342 342 342 342 343 344 344 343 343 344 346 344 341 341 341 338 335 336 335 335 337 338 337 336 336 335 336 336 334 335 335 334 334 335 337 338 338 337 338 339 339 339 339 337 337 339 340 341 342 341 340 340 339 339 339 340 340 340 339 340 338 337
334 335 335 336 336 336 335 336 336 337 338 338 337 338 340 341 341 340 339 339 339 340 340 340 340 340 341 342 343 343 343 344 346 346 344 341 341 341 338 336 337 336 336 338 339 337 337 336 336 337 336 335 336 336 335 336 337 338 339 338 338 338 338 338 339 339 337 336 337 339 340 341 340 340 340 340 340 339 339 340 340 339 339 338 336
333 334 335 335 334 334 335 336 336 337 337 338 338 338 339 341 341 341 339 339 338 338 338 338 338 340 341 341 342 342 342 342 344 346 344 341 340 340 338 337 338 337 336 338 339 339 338 338 337 337 337 338 338 339 338 338 339 339 339 339 339 338 338 338 339 340 338 336 336 337 339 339 340 340 339 339 340 339 339 339 339 339 338 337 336
333 334 334 334 334 334 335 336 337 337 337 338 338 338 337 339 340 341 341 339 338 337 337 337 337 339 341 341 341 341 341 340 343 344 343 340 339 339 339 338 338 337 337 338 339 338 338 337 336 336 337 337 339 339 340 339 339 339 339 339 339 339 339 339 339 339 339 337 336 336 336 336 337 338 338 338 338 339 338 339 339 338 337 336 336
333 333 333 333 334 334 334 335 337 337 337 338 338 338 338 337 339 340 340 340 339 338 338 336 336 338 340 340 340 340 340 342 344 344 341 339 339 339 339 338 337 337 336 337 337 337 337 336 335 335 337 337 338 338 340 340 340 339 340 340 340 340 340 340 339 338 337 337 336 336 336 335 335 336 337 337 337 337 337 338 338 337 336 335 334
332 332 333 334 334 333 334 335 336 336 337 338 338 339 338 337 338 340 339 338 338 338 338 336 336 335 336 336 337 338 340 343 344 343 340 339 338 338 338 337 337 337 336 336 336 335 334 333 333 334 336 336 336 337 340 341 340 340 340 340 340 339 339 339 338 336 336 335 336 337 336 335 334 335 335 335 335 336 336 336 336 336 335 334 333
331 332 333 334 334 334 334 335 335 336 337 337 337 339 339 338 338 339 338 337 338 339 338 337 335 333 332 332 335 338 341 342 341 340 339 338 339 338 337 337 337 336 335 335 334 334 333 333 334 335 336 335 335 338 341 341 340 340 339 339 339 339 339 339 338 337 336 336 335 336 336 335 335 335 335 335 335 335 335 336 335 335 334 333 333
331 333 333 334 334 334 334 334 335 336 337 337 337 338 339 337 337 339 338 337 338 339 338 337 335 332 332 333 335 338 339 339 339 338 337 338 338 337 337 337 336 336 336 336 336 336 337 337 338 339 340 339 339 340 341 340 339 340 340 339 339 339 339 339 339 338 337 336 336 335 335 335 335 335 335 336 335 336 335 335 335 335 334 333 334
331 332 333 334 335 335 334 335 335 335 337 338 337 338 339 337 337 339 339 338 337 339 339 337 335 333 334 334 337 338 338 338 338 338 338 338 337 336 336 336 336 337 338 338 338 338 337 338 339 341 341 341 340 341 341 340 340 340 340 339 339 339 339 339 339 339 338 338 336 336 336 336 335 335 335 336 336 335 335 335 335 334 333 333 333
329 332 333 333 334 334 335 335 334 334 336 337 339 339 338 337 337 339 339 338 338 339 340 338 337 335 335 335 336 336 337 337 338 338 338 338 337 337 336 336 336 337 337 337 337 336 335 338 340 342 342 342 341 339 339 339 340 340 340 340 339 339 339 338 338 339 339 338 338 337 337 337 336 336 337 337 336 336 336 335 335 335 334 333 333
328 331 333 333 333 334 334 335 335 335 335 337 338 339 338 338 338 339 338 338 337 339 339 339 339 338 337 335 333 334 335 337 337 337 337 337 336 336 335 335 335 335 335 334 334 335 337 340 341 341 342 342 341 339 338 338 339 339 339 339 340 339 339 339 339 338 339 339 338 338 338 337 337 337 337 337 336 336 336 336 335 335 335 334 333
327 330 332 333 333 333 334 334 334 335 335 336 337 338 338 338 337 336 335 336 336 337 339 339 339 339 339 335 333 333 336 338 338 337 336 335 335 335 335 335 335 335 335 336 337 338 340 341 341 340 341 341 341 340 339 339 338 338 338 338 339 339 339 338 338 338 339 338 338 339 338 338 338 338 337 337 336 336 335 336 335 335 335 335 334
325 327 330 332 332 333 334 334 334 334 334 335 336 337 337 338 337 335 335 336 335 336 338 337 336 338 339 337 335 334 336 338 339 339 338 337 337 338 338 338 338 338 338 339 340 340 341 340 339 339 340 341 340 340 340 339 340 339 339 339 339 339 340 340 339 338 338 338 338 338 337 337 337 337 337 338 337 337 336 336 335 335 336 335 334
323 324 327 330 332 333 333 333 334 334 333 333 335 337 337 337 336 334 333 334 335 335 337 337 336 337 338 337 335 335 336 337 338 339 340 339 339 340 340 339 338 339 339 340 340 340 339 339 339 339 340 340 340 340 340 340 340 340 340 340 340 340 340 339 339 339 339 338 337 337 336 336 336 336 336 336 336 336 337 336 336 336 335 334 333
321 322 325 328 330 332 332 332 333 334 333 333 336 337 336 336 336 334 334 335 336 336 337 338 338 337 337 335 336 337 337 336 336 337 338 338 338 339 339 338 337 338 339 339 340 341 340 339 339 339 340 340 340 340 340 340 340 339 339 339 339 339 339 338 337 337 336 336 336 336 335 334 334 334 334 334 335 335 335 334 334 334 332 331 331
319 320 322 325 328 330 332 332 332 332 333 334 336 336 334 334 336 337 337 338 339 338 338 339 339 338 338 337 338 337 337 336 336 337 337 337 337 338 337 337 337 338 339 339 340 341 341 340 339 339 340 339 339 339 338 338 338 337 337 337 337 337 337 336 336 335 334 334 335 335 334 334 333 333 332 332 332 332 332 331 330 330 330 329 329
318 319 321 324 325 327 330 332 333 332 333 334 335 335 334 334 335 336 337 337 338 339 338 338 338 337 337 337 337 336 335 335 336 336 336 337 337 337 337 336 336 336 337 338 339 340 340 339 338 338 337 337 336 336 336 336 336 336 336 335 335 335 335 335 335 335 334 334 333 333 333 333 333 332 331 331 331 331 330 330 329 329 329 328 328
317 318 320 322 323 324 327 330 332 333 333 334 334 335 334 335 336 336 336 336 336 336 336 335 336 336 336 335 335 335 335 334 334 335 335 335 335 335 335 335 335 336 337 337 337 337 337 336 335 335 334 334 335 335 334 334 334 334 334 333 333 333 332 332 333 333 333 332 332 332 332 333 333 333 332 332 331 331 330 329 329 328 328 328 327
316 317 318 319 321 322 324 327 329 331 334 334 334 334 334 334 335 334 333 332 332 332 332 332 333 332 332 331 331 331 331 330 330 330 331 331 331 331 331 331 332 333 334 334 333 334 333 332 333 333 333 333 333 333 333 332 332 331 331 331 330 330 330 330 330 330 330 329 330 330 331 332 332 332 332 331 330 330 329 328 328 327 327 326 326
315 316 317 318 319 320 322 324 326 327 330 332 332 332 332 333 332 331 330 328 327 326 326 327 327 326 326 327 327 326 326 325 325 325 326 326 326 327 328 328 328 329 330 330 331 331 331 330 331 330 331 331 330 330 330 329 328 328 328 328 328 328 328 327 327 326 326 327 328 330 330 331 331 331 330 330 329 329 328 327 326 326 325 326 326
Wind_Speed
17 16 14 11 12 13 14 15 16 16 16 17 20 23 24 24 23 22 22 23 22 20 21 22 22 23 23 23 23 22 21 23 25 30 32 31 30 29 28 26 25 25 23 22 22 20 20 20 20 20 19 19 19 18 19 18 17 15 15 15 16 16 17 16 11 9 13 15 15 14 13 13 14 13 12 13 14 15 16 16 16 17 18 20 21
19 19 18 16 14 14 15 16 16 17 16 17 19 21 23 24 25 24 23 24 23 21 20 20 22 22 20 21 24 25 24 24 27 29 32 33 33 31 30 28 26 26 25 24 24 23 23 23 22 22 21 20 20 19 18 17 17 16 15 14 15 16 18 19 15 11 12 15 15 14 14 14 14 14 12 13 14 15 16 16 16 17 19 20 22
20 21 20 18 17 15 15 16 16 18 18 19 20 21 22 24 26 26 25 24 24 24 22 21 21 20 18 20 23 25 27 26 26 28 31 33 34 33 31 30 28 27 27 27 26 26 25 25 25 24 22 21 21 20 20 19 18 18 17 16 16 16 18 20 18 14 14 15 15 15 15 15 16 15 13 14 14 14 15 15 16 17 19 21 23
20 22 21 20 19 17 16 15 16 18 20 21 22 22 23 24 27 28 27 25 25 26 26 24 22 20 19 21 21 23 26 27 26 26 28 31 33 33 31 30 30 30 29 29 28 27 27 26 26 25 23 23 23 22 21 19 19 19 19 19 18 16 17 19 19 17 15 14 15 16 15 16 16 15 14 15 15 15 16 16 16 17 18 20 22
20 22 22 21 20 18 17 16 16 18 20 21 22 23 25 26 27 29 29 27 26 27 29 28 26 24 23 23 21 22 25 28 27 24 25 30 32 32 32 31 31 31 31 31 30 29 28 26 25 24 24 24 24 22 21 19 19 20 19 19 19 17 17 19 20 19 17 16 16 17 16 16 16 15 15 15 15 15 16 16 16 16 17 18 20
20 21 22 22 21 20 18 18 18 17 18 20 22 23 25 26 28 29 30 29 28 28 28 29 29 27 26 25 24 23 25 29 29 26 26 29 31 31 32 32 32 33 32 32 31 30 29 28 26 24 24 24 23 22 21 20 20 20 20 19 19 18 18 19 20 20 19 19 18 17 16 16 16 15 15 15 14 14 14 14 14 15 16 17 18
20 21 22 22 21 20 18 17 18 18 18 19 21 22 23 24 26 27 28 29 29 27 25 26 27 27 27 26 25 24 25 28 29 27 27 29 29 31 33 34 33 33 33 33 32 31 31 29 28 26 24 24 23 22 20 20 20 21 21 20 19 19 18 19 20 19 19 19 19 18 18 17 16 15 14 12 12 12 12 13 13 14 14 16 17
19 21 22 21 21 20 18 16 17 18 18 18 19 20 21 21 22 23 24 26 27 28 26 25 25 25 26 27 26 25 25 25 25 26 27 28 29 30 34 37 35 34 34 33 32 32 31 30 29 27 26 24 23 22 21 22 22 22 21 20 19 19 20 20 20 20 20 19 18 19 18 17 16 15 13 10 11 12 13 13 14 14 14 14 15
18 20 21 22 21 20 18 16 15 16 17 18 18 18 19 20 20 20 22 24 26 27 26 25 24 24 25 27 27 26 27 27 27 27 27 28 28 26 31 36 35 33 34 33 33 33 32 31 30 28 27 25 23 22 22 24 25 24 23 21 20 20 21 21 21 21 20 18 17 17 16 16 17 16 14 13 14 15 13 11 12 14 13 13 14
18 18 20 22 21 20 19 17 16 16 16 17 18 18 18 19 20 20 21 24 27 27 25 24 24 23 23 25 26 27 28 29 28 28 28 29 28 25 26 31 32 33 33 33 33 33 32 31 30 29 27 25 24 24 23 24 24 23 21 20 20 20 21 21 22 22 20 18 18 17 15 16 19 18 17 17 16 15 13 12 12 11 10 11 13
20 18 19 21 21 20 19 17 16 16 16 16 17 17 17 18 19 20 20 22 25 26 25 24 25 24 24 24 25 27 29 29 27 27 27 28 28 27 27 28 30 32 33 33 33 33 32 32 31 29 28 26 25 24 23 22 22 22 21 20 19 20 22 22 23 23 21 19 19 18 17 17 20 20 18 17 15 14 13 13 12 11 9 8 10
21 18 19 20 20 20 19 18 17 17 16 16 16 17 17 17 18 19 20 21 23 24 24 24 24 24 23 23 24 26 28 29 27 26 25 25 25 27 29 28 29 30 31 32 33 33 32 32 32 31 30 27 25 23 23 23 23 23 23 22 21 21 21 23 24 24 23 22 20 20 20 20 19 19 17 15 13 12 12 12 12 12 11 10 10
21 19 19 20 20 20 19 18 18 17 16 15 16 16 16 17 17 18 19 20 20 21 21 22 22 22 22 22 24 26 28 28 27 26 27 26 25 26 28 29 28 29 30 30 30 31 31 31 31 31 30 27 24 23 23 23 23 23 21 21 22 22 22 24 25 24 24 23 22 23 23 21 19 18 15 13 12 12 12 13 13 13 13 13 14
19 19 21 21 20 20 20 19 19 19 17 15 15 15 15 16 17 18 19 19 19 19 20 20 20 20 21 22 24 26 27 27 25 25 26 28 28 28 28 28 28 29 30 30 30 30 30 29 30 30 29 26 25 23 23 23 24 24 23 23 24 24 23 23 24 26 25 23 24 25 23 20 19 16 12 11 12 12 13 13 12 12 12 13 13
19 21 21 21 20 20 20 20 20 20 19 18 16 15 15 15 15 16 17 18 18 19 19 19 20 20 21 22 23 25 26 26 25 24 24 26 28 27 27 28 29 29 29 29 29 30 30 29 30 30 28 27 25 24 23 24 24 24 24 25 25 24 23 23 24 26 26 24 24 24 21 19 17 15 12 10 10 10 11 11 10 9 9 10 11
21 21 20 19 20 20 20 20 20 20 20 19 18 17 16 15 14 13 14 16 17 18 18 19 20 20 21 21 22 24 25 25 25 24 23 23 24 24 25 27 29 30 29 29 29 30 30 29 29 30 28 27 25 23 23 23 23 23 23 24 24 24 24 23 23 23 23 23 22 22 19 17 16 14 12 11 10 9 9 9 9 8 7 7 8
21 20 18 19 21 21 20 19 20 21 21 20 19 18 17 17 16 14 13 14 15 15 17 19 19 19 20 20 21 23 24 23 21 21 22 21 21 21 23 25 27 28 29 29 29 29 29 29 29 29 29 26 24 23 21 20 20 20 21 22 22 23 22 21 21 21 20 19 18 17 17 16 15 14 12 11 10 9 9 9 9 8 8 6 6
19 18 19 21 22 20 19 19 20 21 21 20 19 18 17 17 17 16 14 14 15 13 12 15 17 18 19 20 21 23 23 20 17 17 17 18 19 22 23 24 24 26 28 28 27 27 27 27 27 29 28 26 24 22 20 20 19 19 19 20 20 21 20 20 19 18 16 15 15 15 14 13 13 13 12 10 9 8 9 9 8 9 9 8 7
18 18 21 22 21 19 17 18 19 20 21 20 19 18 17 16 15 15 14 14 15 13 11 13 16 17 18 20 20 20 21 19 16 15 16 16 18 21 22 23 24 25 26 26 26 27 27 26 26 27 27 25 24 23 21 21 21 20 20 20 20 20 19 18 18 17 15 15 15 15 13 12 12 12 11 9 9 9 9 9 9 10 11 11 9
20 20 21 21 21 19 17 17 18 19 19 20 19 18 17 14 12 12 12 12 13 15 14 14 16 16 16 17 17 18 19 18 16 16 16 17 18 20 21 22 24 25 24 23 23 24 26 26 26 26 26 25 24 23 21 20 21 22 21 21 21 20 17 16 16 16 14 15 15 14 13 12 12 12 11 11 11 10 9 9 9 9 10 10 10
22 22 22 22 22 21 18 17 17 18 18 18 18 17 16 14 12 12 13 13 12 13 14 15 15 16 15 15 16 16 16 16 17 16 15 14 15 17 19 21 22 22 23 23 22 23 25 27 27 26 26 26 24 21 20 21 22 22 22 22 21 18 15 15 15 14 13 14 14 13 13 13 13 13 13 13 12 11 10 10 10 9 10 10 10
23 22 22 21 22 22 20 17 17 18 18 17 18 18 15 13 13 13 13 13 11 11 13 14 15 16 16 15 15 15 16 16 16 14 13 12 12 14 17 20 21 20 21 22 23 24 24 26 26 25 25 25 23 19 19 21 22 21 20 19 17 14 13 13 13 13 12 12 12 12 13 14 15 15 15 14 12 11 11 11 11 11 11 11 10
23 22 20 20 21 22 21 19 18 18 17 16 17 17 15 14 13 12 12 12 11 11 11 12 14 16 16 15 15 15 16 16 15 14 13 11 11 11 13 15 16 18 19 21 23 23 23 24 25 25 25 24 21 19 19 20 19 18 17 15 14 14 14 12 12 14 13 12 12 14 14 14 15 15 15 15 13 11 12 11 12 12 11 10 10
22 21 20 20 20 21 22 21 20 18 16 16 15 15 13 12 12 11 11 11 10 11 11 11 12 13 15 15 15 15 15 14 14 15 14 11 10 10 9 8 9 12 16 20 21 22 22 22 23 23 22 22 20 19 18 18 17 16 15 14 13 13 13 13 13 14 14 13 14 15 14 14 14 15 15 15 13 11 11 11 11 11 10 10 10
21 20 20 20 20 20 23 23 21 17 15 14 14 14 12 10 10 9 9 9 10 11 12 12 11 12 12 13 13 14 14 13 13 12 10 8 8 9 7 6 6 7 10 12 15 17 16 16 17 18 19 20 20 19 17 16 15 14 13 13 13 13 13 14 14 14 15 16 16 15 13 12 11 12 12 12 10 10 10 9 9 10 10 10 10
21 20 20 20 19 20 22 22 19 15 14 14 14 14 12 11 10 9 7 7 8 11 12 12 11 10 10 11 12 13 14 13 11 10 8 6 6 6 6 7 7 6 6 7 10 11 12 12 15 18 18 18 16 15 14 13 11 11 11 12 12 12 12 14 14 15 15 15 14 13 11 9 9 9 10 10 10 10 10 9 9 10 9 9 9
20 20 21 20 19 19 19 19 16 15 16 15 15 14 13 12 11 10 7 5 6 9 11 12 11 9 8 10 11 13 15 14 11 10 9 8 7 7 7 8 8 7 7 8 9 10 11 13 16 16 15 13 11 9 8 8 8 9 10 10 10 10 11 12 13 14 13 13 13 11 10 9 9 9 10 10 10 9 9 9 9 9 7 6 6
19 20 20 20 19 18 18 16 16 16 17 17 16 16 14 13 12 11 7 6 6 8 10 12 12 10 9 9 9 10 13 15 13 11 11 10 10 10 8 7 8 8 8 10 10 11 13 15 16 14 12 11 10 9 8 8 8 9 9 8 8 9 10 11 11 10 10 11 11 10 9 10 11 10 10 10 9 8 8 8 7 6 5 5 5
19 20 20 18 17 17 17 15 15 16 17 17 17 15 13 12 12 10 6 4 6 8 10 12 12 11 10 10 10 10 14 16 15 13 12 11 11 11 10 8 8 8 9 10 12 14 15 16 15 14 13 12 11 11 11 10 9 8 8 8 9 9 10 10 9 7 8 9 9 9 11 13 12 10 10 10 9 8 8 7 6 5 5 6 7
19 19 19 17 17 17 16 16 16 16 15 16 17 15 12 10 10 8 6 5 7 9 11 12 12 12 13 13 13 14 17 17 16 14 12 12 11 12 11 9 8 9 10 11 12 14 14 14 14 14 14 14 13 13 13 11 9 8 8 8 7 8 9 10 9 8 9 9 9 9 12 13 11 10 10 9 9 8 8 7 7 7 6 7 8
19 20 19 18 17 16 16 17 17 15 13 13 15 15 13 10 9 8 7 7 7 9 12 14 14 14 15 15 16 16 16 16 17 16 13 12 12 13 11 9 9 10 12 13 13 13 13 12 12 12 12 12 13 13 12 11 10 8 8 8 8 9 10 10 10 10 10 10 9 10 13 13 12 11 10 9 8 9 8 8 8 9 10 9 10
19 20 20 19 18 15 15 17 17 14 12 12 14 14 13 11 9 8 7 5 4 6 10 13 14 13 14 15 16 16 15 15 17 17 12 11 12 12 11 10 9 10 12 13 13 12 11 10 10 10 10 11 12 12 11 11 10 9 9 9 10 11 12 11 11 12 12 13 13 14 14 14 13 12 11 10 9 9 9 10 11 11 11 10 10
19 20 20 19 18 17 15 15 16 15 13 13 14 13 12 11 10 9 9 7 5 6 9 12 13 14 14 14 14 13 11 12 15 16 14 12 12 12 12 11 10 10 12 13 12 11 9 8 7 7 8 10 11 11 11 11 11 10 11 12 13 14 13 12 12 13 13 15 17 16 16 16 15 13 12 12 12 12 12 13 13 13 12 12 11
19 19 19 17 18 18 16 15 15 15 14 15 14 13 13 12 11 11 11 9 8 9 11 12 13 14 14 14 14 13 12 11 13 16 17 15 13 13 13 12 11 11 12 13 11 9 7 5 4 5 5 6 7 9 11 12 12 11 12 13 14 15 14 13 14 16 16 17 18 17 16 16 16 15 14 14 14 14 14 15 15 15 14 14 12
19 18 17 15 15 16 16 15 15 15 15 16 15 14 14 13 12 13 12 11 10 9 10 11 12 12 13 13 13 14 12 10 12 17 19 17 15 14 14 13 13 13 12 11 9 8 6 5 6 6 6 5 5 7 10 13 14 13 14 14 15 16 16 17 17 18 18 18 19 18 16 16 16 16 16 15 15 15 16 16 16 16 16 14 14
19 18 16 15 14 15 16 17 17 17 17 17 17 16 15 14 13 14 13 11 10 10 10 9 9 10 12 12 12 12 10 10 14 18 18 16 15 16 15 14 15 15 13 10 9 8 6 6 7 8 8 8 6 5 7 11 15 16 15 15 16 17 17 18 18 19 19 19 19 19 17 16 16 16 16 16 16 16 16 17 17 17 16 15 14
19 19 17 16 15 15 15 16 17 18 18 18 18 18 16 13 12 13 12 10 10 10 10 9 8 9 10 10 10 10 10 13 17 19 17 16 15 15 14 14 14 13 12 11 9 8 7 6 8 9 9 10 9 7 5 8 13 16 15 14 14 16 17 17 18 19 19 18 18 18 18 17 16 16 17 18 18 18 18 18 17 17 17 16 15
18 18 18 17 16 15 15 16 17 18 18 18 17 17 16 13 11 11 10 10 10 10 11 11 10 10 10 10 9 10 12 15 18 18 17 16 15 13 12 11 11 10 9 8 6 5 4 5 6 9 10 10 10 7 4 5 9 12 14 12 11 11 11 13 14 17 19 18 17 17 17 17 15 15 16 18 19 20 20 19 19 18 17 17 16
20 18 17 16 15 15 15 17 17 18 18 17 16 15 15 13 11 11 11 10 10 10 11 11 11 10 11 12 13 14 16 18 19 19 18 17 15 13 12 10 9 7 5 4 3 1 1 3 5 7 8 9 9 6 6 8 8 8 11 11 10 8 7 6 8 12 16 17 16 16 17 16 15 12 12 13 16 18 19 19 19 19 18 17 17
21 19 17 15 15 15 15 16 17 18 17 16 16 15 14 14 13 12 10 9 10 11 10 11 12 13 14 16 16 17 18 20 20 20 19 18 15 13 12 10 9 7 5 4 2 1 3 5 5 5 6 7 6 4 8 10 9 9 11 12 11 9 8 7 7 9 12 14 15 16 16 15 14 12 11 11 12 15 18 18 18 18 16 15 15
21 19 17 15 14 15 15 15 16 17 16 15 15 14 14 14 13 12 10 8 9 10 10 11 13 14 16 17 18 16 16 18 20 19 18 18 15 13 13 12 11 9 7 6 4 4 4 5 4 4 4 3 3 5 9 10 9 10 11 11 10 9 8 8 8 8 10 12 14 15 16 15 14 13 13 12 12 13 16 18 18 18 16 15 15
21 18 17 15 14 14 15 15 16 16 15 14 13 13 12 12 11 9 8 8 8 10 11 12 13 14 14 14 14 12 9 11 15 16 15 14 13 12 13 13 13 12 10 9 7 7 7 5 5 5 6 6 7 8 9 10 10 10 10 10 9 7 6 6 6 5 5 6 8 10 12 13 14 15 15 15 14 14 15 16 18 19 18 17 16
19 18 17 15 13 13 14 13 13 14 13 12 12 12 10 8 7 5 4 5 7 8 7 6 7 10 11 11 11 10 7 5 8 11 11 11 11 11 12 12 12 10 9 9 8 8 9 8 7 7 8 9 9 9 8 8 8 8 9 9 8 6 5 4 4 3 3 2 2 4 5 8 11 14 16 17 18 18 17 17 18 19 21 21 20
18 19 18 16 14 13 13 12 12 12 11 11 11 10 7 6 5 4 5 5 3 2 1 2 6 7 9 11 13 13 9 6 7 11 13 13 12 12 12 12 12 12 10 10 10 10 10 9 8 7 8 8 8 7 8 7 5 4 4 4 4 4 3 2 1 1 2 2 2 2 3 5 6 9 12 14 16 18 20 20 19 19 20 21 20
18 19 19 17 15 15 14 13 12 11 10 9 8 6 5 6 7 7 6 4 5 7 7 9 9 9 10 14 16 14 10 9 12 17 18 17 16 15 15 15 14 13 11 11 10 9 8 9 9 10 10 9 8 8 8 6 4 2 2 2 2 2 2 1 1 1 1 2 2 2 3 4 5 6 7 8 9 13 17 19 19 18 17 17 15
18 18 19 18 17 16 14 12 10 9 7 5 5 5 5 6 5 5 4 2 2 5 7 9 10 10 12 15 16 14 11 12 15 17 19 19 18 16 14 14 13 13 13 14 14 14 13 13 12 11 11 10 8 8 8 7 6 6 5 5 5 4 4 3 3 3 2 2 3 2 2 1 2 3 5 6 6 7 8 9 11 10 8 6 5
17 18 18 18 17 16 14 11 8 6 3 2 2 2 4 3 2 3 3 2 3 5 8 11 12 12 14 15 14 12 11 12 14 16 17 17 16 15 14 15 16 17 17 17 18 17 17 15 13 12 11 10 10 11 11 10 10 9 8 7 6 5 4 3 2 2 3 3 3 3 3 3 3 4 5 6 7 7 8 8 7 8 9 10 10
17 17 17 17 16 16 15 12 8 4 2 1 1 1 1 2 4 6 6 6 6 7 10 14 16 15 15 15 13 11 11 12 14 16 17 16 16 17 18 17 17 18 18 18 18 18 17 16 15 14 13 13 12 12 11 10 9 7 6 5 4 3 2 2 2 3 4 4 3 3 4 5 6 8 10 10 8 6 6 7 8 9 10 10 10
15 16 16 16 17 17 16 13 10 6 4 3 2 2 3 6 7 9 10 10 11 11 13 15 16 15 15 15 14 15 16 17 18 18 19 19 20 20 20 18 18 18 19 19 19 18 17 17 16 15 14 13 12 10 9 8 6 5 3 2 1 1 1 1 3 4 5 5 4 4 4 6 7 7 6 4 2 1 4 7 10 10 10 9 8
13 14 14 15 17 17 16 14 12 9 7 5 4 5 6 8 10 12 13 14 15 16 15 15 15 15 16 18 20 21 21 21 21 22 22 23 23 22 22 21 21 21 21 21 20 19 18 16 15 14 12 11 9 8 7 5 4 2 1 1 2 2 2 2 1 2 4 4 4 4 4 6 8 8 6 5 6 8 10 12 11 11 11 10 9
12 13 13 14 15 16 16 15 14 12 12 11 9 7 8 9 11 13 15 16 17 17 18 18 19 20 22 24 25 25 24 23 23 23 24 23 23 23 23 23 23 22 22 21 19 17 16 14 12 11 10 9 7 7 6 5 5 5 5 5 4 5 5 4 3 1 2 4 4 5 6 8 9 10 11 11 12 13 14 14 13 13 13 12 12
Wind_Direction
351 342 331 313 297 289 285 280 275 266 252 243 245 248 249 247 243 242 245 250 253 254 255 257 259 256 251 254 259 263 272 277 264 244 234 234 236 235 234 235 236 237 238 236 234 235 234 236 240 240 239 244 247 250 256 259 260 256 250 245 240 236 228 217 213 236 249 251 255 254 251 252 257 256 252 249 245 244 247 249 251 252 253 253 251
350 347 341 330 315 300 291 284 276 269 259 248 246 249 251 247 242 239 237 237 239 243 248 252 256 259 258 254 253 254 261 275 276 261 245 235 232 234 235 235 238 239 237 236 234 232 233 235 237 238 240 245 249 252 256 256 257 256 248 241 240 239 232 226 222 225 244 253 255 254 247 244 250 254 254 255 253 251 251 252 252 251 250 251 250
349 349 345 338 328 315 300 287 278 271 262 252 248 247 247 245 240 237 236 231 226 229 235 242 249 254 254 250 248 247 250 259 265 261 254 243 231 231 235 235 236 238 235 235 235 232 233 236 238 240 241 243 247 252 256 257 255 252 245 242 247 248 243 237 230 224 236 252 259 258 249 242 244 249 254 258 259 256 254 253 252 251 251 251 250
347 348 346 340 331 321 307 293 281 272 263 255 251 247 245 244 239 237 238 234 226 223 224 230 238 240 238 240 244 243 244 249 250 249 255 257 242 231 233 235 234 235 235 235 236 235 236 238 240 241 239 241 247 253 256 255 250 246 246 248 248 246 244 240 235 233 237 248 259 261 255 246 245 247 250 253 255 257 259 259 257 255 253 251 250
345 344 343 340 333 323 311 300 290 279 269 261 256 253 250 248 245 243 241 239 234 226 220 220 225 228 228 230 234 235 234 238 244 242 248 262 259 241 231 232 234 234 235 236 237 238 239 239 240 240 239 243 249 252 252 248 245 246 249 250 246 242 241 238 238 240 242 247 256 261 259 252 249 248 246 246 251 256 260 262 261 258 255 251 250
343 341 339 337 333 325 316 305 296 287 277 268 265 262 258 254 252 250 247 243 239 231 223 219 220 223 226 229 231 232 230 232 238 238 237 250 261 254 238 233 234 236 235 236 238 239 240 241 242 242 242 245 249 250 248 245 244 245 248 248 245 242 240 237 238 240 241 246 253 259 260 254 249 249 248 247 251 256 260 264 264 259 254 252 252
340 338 336 334 332 328 321 311 301 292 284 276 272 269 266 260 257 256 254 249 242 237 229 223 221 222 224 228 230 230 230 231 235 239 238 237 243 250 247 239 235 237 236 236 237 237 239 241 243 244 244 246 248 247 245 243 242 245 248 249 246 242 239 237 236 238 240 244 248 252 256 255 251 250 252 254 254 256 261 265 264 261 256 253 254
337 335 333 331 331 331 329 320 309 300 293 286 280 274 270 267 263 263 262 255 247 243 237 231 230 230 229 231 231 230 229 231 234 239 240 233 229 238 245 241 236 235 235 235 236 236 238 240 242 244 245 247 247 245 243 243 241 242 246 248 246 242 238 235 235 238 239 240 241 245 249 251 251 250 252 249 245 250 255 257 262 268 266 261 259
331 332 330 329 330 332 332 328 320 311 302 293 287 280 274 270 268 267 265 261 256 252 248 243 239 236 235 235 235 234 233 234 235 233 231 228 225 230 238 238 234 233 232 232 233 234 236 239 241 243 245 247 248 249 250 248 245 244 246 247 247 243 238 236 235 234 234 235 237 241 243 244 245 246 244 240 240 248 253 254 263 272 272 266 262
322 328 329 329 330 330 330 330 326 321 313 301 292 286 279 274 269 266 265 264 262 258 253 249 244 238 235 235 237 239 240 240 240 236 231 228 227 228 232 233 231 230 229 229 229 231 233 237 239 242 244 246 249 252 254 251 247 245 248 249 249 246 241 239 236 231 228 229 232 234 234 237 240 240 242 246 249 251 253 255 263 270 269 266 267
317 322 326 330 331 330 329 329 325 322 319 312 303 294 287 281 273 267 264 262 261 258 253 249 247 244 240 238 238 239 241 241 241 239 234 231 231 232 233 233 231 229 227 226 227 229 231 235 239 242 243 244 248 251 251 248 244 243 245 247 248 247 243 239 237 233 226 225 230 231 229 233 240 243 246 251 253 252 252 255 257 258 255 256 269
315 317 324 330 331 331 331 328 324 322 319 316 313 307 297 288 279 271 265 261 259 256 251 249 249 249 246 243 242 243 243 243 242 238 233 229 229 231 233 233 231 230 229 228 229 230 233 236 239 241 243 244 246 247 246 246 247 249 249 248 248 248 242 239 240 238 231 227 228 229 230 234 240 245 246 247 249 248 248 250 250 250 249 245 251
317 315 323 327 327 330 332 329 326 325 322 319 317 312 303 294 285 275 268 264 260 256 255 255 254 253 249 243 242 244 246 246 244 241 236 232 229 230 231 231 230 232 233 233 233 233 235 237 239 241 242 243 243 244 244 245 250 253 253 251 252 249 242 239 241 242 239 236 233 232 233 236 240 243 243 242 244 242 239 242 245 245 245 247 254
321 317 321 323 324 327 329 329 329 327 326 325 317 306 300 295 289 283 277 271 265 262 262 262 258 253 248 243 242 245 248 250 250 248 244 240 237 235 235 235 234 236 238 238 237 236 236 238 240 240 241 242 242 242 243 244 246 249 250 251 253 252 248 242 240 240 241 240 238 239 241 242 244 248 247 242 243 242 241 242 244 246 251 259 267
323 320 320 320 322 325 328 328 328 327 327 325 316 303 294 290 286 284 281 276 271 269 266 262 258 252 247 244 244 246 249 251 252 251 248 244 240 238 239 239 237 236 236 237 238 239 239 239 240 240 240 242 243 243 243 244 244 244 246 248 250 253 252 248 243 243 243 240 238 241 245 249 252 253 251 245 243 246 247 247 248 251 258 266 271
321 321 321 321 321 324 327 326 324 325 325 322 316 308 300 292 284 277 275 273 272 273 270 267 263 258 253 248 244 246 249 250 249 249 248 245 242 240 240 239 236 233 233 235 238 242 242 239 238 239 240 242 244 243 243 244 243 242 245 247 246 246 248 247 245 246 247 243 241 244 249 253 255 254 251 247 246 247 244 243 243 242 244 254 268
319 321 322 323 323 324 327 326 322 323 323 320 316 312 308 302 293 285 278 270 263 263 268 272 270 265 261 256 252 253 255 254 251 249 248 247 244 241 240 237 233 232 233 234 236 239 238 235 235 238 239 240 241 239 235 234 236 240 242 243 241 241 244 248 247 247 247 245 245 248 250 251 250 249 249 246 241 235 226 229 234 230 226 234 255
318 321 322 324 325 327 328 325 320 321 323 321 317 312 311 310 305 298 290 277 267 263 266 272 273 269 265 261 259 259 260 260 257 252 248 245 242 241 241 237 234 233 232 231 232 233 234 234 234 235 236 237 236 234 230 225 227 234 236 236 236 238 241 246 245 242 239 239 240 241 240 241 240 239 236 228 218 214 220 234 242 233 227 228 237
318 320 322 324 326 327 328 325 320 320 321 320 318 313 309 311 310 304 293 284 284 285 280 276 276 274 270 267 263 261 262 264 262 255 250 246 241 240 238 234 231 232 232 231 230 229 231 233 232 231 233 233 232 232 230 224 222 227 229 229 230 234 238 242 240 235 232 232 234 232 230 231 228 220 212 206 208 218 231 242 247 241 237 235 235
317 318 319 324 326 325 324 323 321 320 318 316 317 314 308 306 305 298 290 288 292 295 292 288 286 282 278 275 269 264 263 264 262 259 255 249 242 237 233 228 226 227 228 226 223 223 225 229 229 228 229 229 228 229 227 222 221 225 226 225 226 231 234 236 235 233 234 235 236 236 233 225 212 202 200 206 217 228 234 237 241 243 243 241 236
318 318 318 322 325 324 321 321 320 320 317 313 311 311 308 305 298 292 290 289 291 295 297 296 291 287 285 281 275 270 268 267 265 260 254 245 236 230 228 228 229 228 225 221 219 219 222 226 228 226 225 225 224 222 220 216 215 220 225 226 228 230 232 232 231 230 234 238 237 233 226 213 204 204 210 217 225 233 238 237 238 242 248 248 242
320 320 320 320 322 322 321 320 321 320 316 310 308 308 308 307 302 294 290 289 291 293 294 292 287 285 285 281 275 272 270 268 264 259 252 243 232 226 229 235 236 232 223 217 218 219 222 227 229 227 224 223 219 215 216 214 210 214 225 230 230 227 226 229 227 223 226 231 228 220 215 210 210 215 221 225 231 237 239 239 240 244 251 255 252
321 321 321 320 320 321 319 319 322 321 312 305 305 307 306 306 306 298 285 283 289 292 290 287 285 282 280 277 272 268 265 262 260 259 257 248 232 228 235 241 241 236 228 222 221 223 226 230 229 224 221 218 212 207 211 212 208 208 214 219 217 214 216 221 221 218 218 218 213 210 210 210 215 224 230 234 241 245 242 239 237 239 245 252 256
321 319 319 320 321 322 320 318 319 318 309 302 305 308 307 304 304 299 287 278 280 283 283 283 280 275 272 272 269 259 252 254 261 263 260 247 228 226 232 235 237 239 234 227 222 218 219 221 218 213 212 209 202 199 204 206 202 199 201 207 212 212 214 218 219 216 214 210 208 210 212 217 228 238 239 239 243 247 242 231 226 231 239 247 253
318 315 316 319 322 323 321 319 318 315 308 303 304 307 308 303 294 286 279 274 273 275 276 275 271 267 265 268 267 255 244 248 258 258 252 241 228 224 225 223 224 229 228 219 210 204 202 202 198 196 198 197 190 187 192 195 197 200 205 214 222 225 223 221 218 214 211 210 211 214 218 225 236 240 236 230 227 224 218 212 216 229 238 243 245
315 313 314 316 320 322 322 321 319 315 312 310 305 304 304 299 286 271 263 266 267 265 265 265 262 260 259 262 265 259 252 253 254 242 229 224 220 210 200 197 199 205 205 196 190 189 187 185 184 184 186 184 180 182 189 193 199 211 218 222 227 230 228 225 222 218 215 214 214 218 224 229 227 219 210 207 206 206 208 211 217 223 226 230 234
314 313 313 313 315 319 323 321 315 311 315 317 314 308 304 296 285 273 268 274 268 260 261 264 262 258 255 259 266 264 255 250 245 230 216 209 206 199 187 183 189 192 183 175 175 176 172 168 168 172 174 172 170 181 197 204 210 218 223 224 223 222 223 225 226 226 228 227 226 228 230 222 209 199 196 199 203 207 210 211 209 204 204 216 230
314 314 314 312 310 314 319 318 310 308 313 317 317 314 309 298 287 281 285 296 286 267 258 258 260 261 258 259 268 267 254 249 247 237 222 209 203 201 194 185 187 183 168 159 158 157 156 154 155 159 164 164 166 177 195 207 211 213 216 218 218 219 223 226 227 229 232 230 227 224 213 201 195 195 199 204 208 210 209 206 202 200 204 220 234
314 315 315 311 309 311 315 313 309 308 309 313 316 314 308 297 290 290 294 296 281 265 250 246 252 257 252 250 253 252 250 257 265 258 238 221 213 211 202 187 177 170 160 153 150 150 151 153 154 158 163 167 174 182 191 198 203 209 218 225 226 226 225 222 218 215 213 211 208 201 194 192 193 196 201 208 215 216 210 206 210 220 229 234 241
311 314 315 312 309 310 310 309 310 309 307 309 313 312 307 299 292 288 278 260 256 254 246 242 244 242 236 236 240 241 244 256 269 266 244 226 221 218 209 193 177 167 164 162 158 158 159 160 163 168 172 177 183 187 189 194 201 209 215 218 214 209 207 205 199 195 198 202 198 192 193 194 194 196 202 209 212 208 207 213 227 239 243 240 246
308 311 314 312 309 309 307 306 308 309 307 308 310 307 305 304 300 291 277 262 256 251 246 245 242 236 232 232 231 232 236 247 257 257 242 221 216 215 208 199 185 174 172 171 166 167 171 173 177 183 184 187 194 197 197 199 201 202 202 199 190 186 191 197 199 200 208 210 200 191 194 198 198 200 204 206 201 199 205 218 229 238 245 250 257
309 309 312 313 311 309 306 304 305 305 307 311 310 303 295 294 295 288 271 258 254 246 245 248 245 239 238 235 227 224 227 232 239 241 229 210 210 210 203 198 188 176 176 176 169 171 180 186 191 198 201 204 207 206 202 202 201 197 190 186 184 187 195 201 205 210 216 213 202 196 199 202 203 204 207 208 206 206 213 220 225 232 242 250 256
313 309 309 311 311 309 306 304 301 299 301 307 308 300 285 275 275 271 258 240 224 220 229 237 235 230 232 230 223 218 214 212 219 223 212 198 200 199 191 188 184 176 178 180 173 170 177 183 192 208 219 224 223 212 199 194 196 197 194 190 190 194 199 204 211 219 221 213 206 206 208 207 206 207 211 215 217 217 220 223 226 230 236 243 249
319 314 309 306 304 302 301 300 295 291 294 299 302 298 285 270 264 261 252 235 219 218 224 227 225 221 219 217 214 215 214 210 212 211 201 189 187 186 181 182 184 185 186 186 180 172 171 178 200 223 234 242 243 233 219 208 200 200 204 205 204 204 207 211 218 225 225 218 214 215 216 214 213 213 216 220 223 224 226 228 229 229 231 238 247
323 319 313 308 302 297 295 293 288 287 292 296 297 297 291 282 272 265 256 242 230 229 230 229 223 216 212 214 218 219 219 213 202 196 189 181 179 181 181 183 187 188 187 186 186 187 192 211 234 247 261 277 279 262 248 237 227 220 219 221 220 221 222 223 224 225 225 223 222 222 221 220 219 219 222 225 226 228 231 231 228 227 230 238 247
323 318 317 317 310 300 295 293 291 291 294 296 296 295 294 289 282 274 266 256 247 244 244 241 228 209 205 213 220 218 211 195 183 181 180 177 175 179 183 185 187 189 190 189 191 200 215 236 247 252 262 275 286 292 273 253 242 234 229 227 226 226 227 227 225 223 223 224 224 223 223 223 223 224 226 229 231 234 236 234 231 231 235 241 249
324 320 321 321 314 305 298 294 293 294 295 296 295 293 291 287 281 275 271 263 254 250 249 245 229 205 198 204 206 201 190 178 173 173 173 174 177 183 188 189 190 194 197 196 198 209 223 239 248 254 264 277 289 306 306 264 243 232 225 224 226 228 229 229 226 221 221 224 225 225 225 227 230 231 232 233 234 235 236 237 238 241 243 246 249
327 324 325 320 312 305 297 293 295 298 298 295 294 292 289 284 277 271 269 266 263 256 244 235 225 209 196 188 182 174 168 165 166 169 173 177 182 187 190 193 196 202 206 205 205 215 230 244 260 272 282 289 293 292 271 227 222 219 215 215 220 223 225 227 226 224 224 226 228 228 227 228 233 238 239 238 237 236 236 238 241 245 249 251 251
333 329 327 323 317 309 301 298 301 303 300 297 298 296 290 282 275 267 261 260 266 262 244 231 230 224 204 185 173 166 163 163 167 172 176 181 186 188 187 191 197 203 206 199 185 186 285 291 294 293 286 283 284 264 197 174 175 188 194 193 186 176 178 194 212 220 225 228 232 232 231 231 235 241 242 240 237 236 237 239 241 244 249 253 254
334 330 326 325 323 316 308 303 303 304 303 301 299 297 293 288 279 268 257 251 258 260 248 233 230 227 213 195 180 171 168 170 175 181 184 186 189 189 189 191 197 204 210 209 199 259 301 294 291 280 261 264 268 212 163 155 154 160 170 173 167 159 161 176 192 206 216 224 228 229 230 235 241 245 246 242 236 234 237 240 244 246 248 253 255
336 333 329 328 326 320 313 305 303 305 307 304 299 298 299 294 283 269 257 248 246 250 253 249 241 235 226 209 191 179 176 180 183 186 190 192 192 192 193 195 200 208 214 213 218 239 257 265 263 243 227 234 219 162 143 136 137 144 151 157 157 155 162 173 186 199 210 220 227 231 235 239 239 241 248 251 246 243 243 246 250 252 253 255 257
340 338 333 329 326 321 315 309 307 309 309 308 308 308 304 300 296 287 276 269 259 251 252 255 253 253 249 229 199 174 167 185 191 191 194 195 193 192 196 200 204 210 214 215 219 225 225 217 208 199 191 188 186 169 148 140 146 150 151 154 155 150 145 147 155 169 190 212 228 238 247 250 249 251 257 260 259 256 253 251 252 252 252 254 256
342 345 341 334 328 326 323 316 310 311 313 316 321 322 318 320 325 318 292 290 299 296 286 261 236 238 247 236 204 174 152 161 186 191 189 184 180 184 194 200 200 200 202 202 201 201 198 191 180 169 169 176 178 168 153 149 155 160 159 156 148 134 121 122 132 145 158 178 216 240 254 259 258 258 260 261 261 260 258 257 257 253 249 249 250
346 349 348 341 336 337 337 329 320 319 322 325 328 329 328 325 315 279 234 216 227 270 296 135 163 195 214 208 195 189 181 161 158 163 163 162 164 171 177 177 173 169 171 178 184 190 196 199 193 179 174 180 179 169 165 164 160 157 159 154 141 124 112 115 135 159 178 203 231 249 253 253 255 257 257 258 259 258 257 257 257 253 249 247 247
350 351 349 348 348 348 345 339 335 336 336 334 334 330 317 307 304 292 267 224 181 173 170 159 159 174 181 175 174 181 184 168 154 150 149 151 159 168 171 169 166 165 164 166 170 172 176 182 182 174 168 168 164 160 162 167 168 168 166 151 139 129 114 118 154 173 196 216 223 233 250 258 259 255 251 254 262 264 260 256 253 251 248 246 244
350 352 352 353 355 356 354 352 350 349 347 345 341 325 303 304 320 323 310 302 139 146 156 154 149 150 155 158 163 166 162 152 147 146 148 153 160 166 170 165 155 147 142 141 143 145 146 152 159 159 156 154 151 143 139 134 133 132 124 112 109 106 97 97 112 126 151 195 215 213 209 229 252 246 241 246 255 255 244 235 232 228 217 204 185
350 355 358 358 357 356 358 1 359 351 350 29 18 315 295 306 9 44 47 56 98 132 142 141 140 142 148 155 160 157 142 131 131 135 140 143 144 147 151 150 144 141 138 138 141 143 144 147 150 147 143 141 136 128 122 119 116 113 108 104 103 103 104 109 122 142 164 192 232 245 227 193 149 139 144 142 136 130 124 124 124 121 117 114 108
350 359 3 1 359 356 356 360 3 354 343 26 42 272 204 134 103 88 79 78 85 100 112 119 125 135 148 156 157 148 136 130 131 133 134 132 133 138 144 143 139 137 136 134 135 137 140 142 142 138 135 133 129 124 122 120 117 115 116 120 126 137 155 180 205 212 208 213 226 233 222 192 159 143 136 130 121 107 102 113 119 119 118 117 113
354 3 5 2 1 359 358 5 16 16 3 9 35 90 117 110 100 89 83 84 88 94 102 111 118 126 135 141 138 133 131 132 134 135 134 132 131 134 138 136 133 133 133 132 133 135 137 140 141 139 137 135 133 130 130 129 129 134 143 153 180 217 233 234 233 234 235 233 222 208 207 207 198 188 182 181 186 169 142 136 132 127 127 126 120
358 3 7 7 5 4 7 18 32 44 52 62 82 109 115 106 96 88 84 84 86 91 101 111 115 114 113 113 112 113 115 118 121 123 125 126 126 127 128 128 128 130 131 131 133 135 138 140 140 140 139 137 135 135 134 131 126 121 93 42 9 355 1 360 318 257 238 227 211 189 188 204 208 204 190 163 143 135 133 131 127 125 127 127 121
4 9 13 14 12 14 18 24 32 47 65 79 90 103 107 101 93 90 89 88 86 88 94 99 100 98 98 99 102 104 105 106 108 111 114 116 119 121 122 122 122 124 126 128 131 134 137 137 136 135 135 133 129 126 123 115 103 91 77 64 52 44 44 49 54 75 176 186 175 157 155 163 161 151 140 137 134 131 129 128 128 127 126 123 117